User: anonymous   Login
Location: Village de las Huertas
(35.3014°N, 106.4095°W)
Time: 15:08:40
(UTC+00:00)
Language:

SL-27 R/B - Orbit

View from above orbital plane
View from above orbital plane
View from above satellite
View from above satellite

Ground track
Ground track

The orbit data is extracted from the following two-line orbital elements,

1 40354U 14084B   21016.81299648  .00001104  00000-0  27712-4 0  9999
2 40354  74.7386 306.5589 0036174  25.7226 334.5775 15.40710214340987
Epoch (UTC): 16 January 2021 19:30:42
Eccentricity: 0.0036174
inclination: 74.7386°
perigee height: 419 km
apogee height: 468 km
right ascension of ascending node: 306.5589°
argument of perigee: 25.7226°
revolutions per day: 15.40710214
mean anomaly at epoch: 334.5775°
orbit number at epoch: 34098

The dashed part of the orbit path shows where the satellite is in the earth's shadow,  

DLR